Location: ?????
(37.7324°N, 23.9257°E)
Time: 21:34:16
(UTC+00:00)

Cosmos 1937 Rocket - Pass Details

Date: 29 November 2020
Orbit: 745 x 781 km, 74.0° (Epoch: 19 January)

Event Time Altitude Azimuth Distance (km) Brightness Sun altitude
Rises 03:19:24 0° 184° (S) 3,172 6.8 -23.2°
Reaches altitude 10° 03:21:47 10° 180° (S) 2,254 6.0 -22.7°
Maximum altitude 03:26:44 54° 104° (ESE) 910 4.2 -21.8°
Drops below altitude 10° 03:31:46 10° 28° (NNE) 2,284 6.1 -20.8°
Sets 03:34:11 0° 24° (NNE) 3,218 6.9 -20.3°
